Погода в Майзасе

Россия / Кемеровская область (Кузбасс)     53°37′15″N   88°12′32″E
темп.,
°C
ветер,
м/с
пор.,
м/с
влажн.,
%
обл.,
%
осадки,
мм/ч
давл.,
гПа
погр.,
м
13 мая, чт
чт1301:00+7ююв217962 0.0 101513
04:00+5ююв229034 0.0 101516
07:00+8ююв128067 0.0 1016103
10:00+14ююз235696 0.0 1014923
13:00+16юз1250100 1.6 10131535
16:00+17ссз014160 0.1 10121869
19:00+15зюз235556 0.1 1012362
22:00+10вюв117565 0.4 101310
14 мая, пт
пт1401:00+7ю1191100 1.9 101410
04:00+6ю119449 0.6 101411
07:00+8ююз12905 0.6 1015105
10:00+12з3473100 0.1 10151032
13:00+11сз3684100 2.0 1016754
16:00+10сз39825 2.3 1017544
19:00+12сз58530 2.3 10191171
22:00+6зюз1168100 0.0 102310
15 мая, сб
сб1501:00+6ююз2263100 0.0 102424
04:00+4ююз2166100 0.0 102516
07:00+7ююз1261100 0.0 102697
10:00+8ююз1360100 0.0 1026244
13:00+11юз2449100 0.0 1026918
16:00+11з2464100 0.3 1025678
19:00+9юв2283100 0.5 102473
22:00+8ююв2388100 0.0 102368
16 мая, вс
вс1601:00+8ююв248991 0.0 102184
04:00+7ююв2393100 0.0 102053
07:00+9ююв258678 0.0 1019114
10:00+16юз2758100 0.0 1018846
13:00+20з5851100 0.3 10161697
16:00+17з5971100 0.8 10151013
19:00+16ююз147151 0.9 1014342
22:00+11зюз2295100 1.9 101516
17 мая, пн
пн1701:00+10сз009844 8.1 101510
04:00+10юз2299100 0.0 101647
07:00+10ююз1295100 0.0 1017110
10:00+13юз138798 0.1 1017513
13:00+16зюз2474100 0.1 1016931
16:00+21зсз3649100 0.0 10141766
19:00+19з376339 0.0 1013677
22:00+12ююз389046 0.5 1013158